Location: Decatur Area Astronomy Club
(40.0275°N, 88.7810°W)
Time: 17:49:26
(UTC-05:00)

Daily predictions for brighter satellites

Satellite Brightness Start Highest point End
(mag) Time Altitude Azimuth Time Altitude Azimuth Time Altitude Azimuth
COSMOS 2428 3.6 20:02:08 10° SW 20:07:45 56° WNW 20:13:24 10° NNE
Cosmos 1844 4.0 20:03:04 10° NNW 20:08:48 79° WSW 20:14:32 10° SSE
Meteor 2-14 Rocket 4.5 20:03:05 10° S 20:09:06 68° E 20:15:12 10° NNE
CZ-2D R/B 3.2 20:07:34 10° SSE 20:11:20 72° ENE 20:15:09 10° N
Cosmos 2237 Rocket 2.3 20:06:05 10° S 20:11:31 53° ESE 20:16:59 10° NNE
Cosmos 1939 Rocket 3.5 20:10:14 10° SE 20:13:46 34° ENE 20:17:21 10° N
Genesis I 3.3 20:09:57 10° NNW 20:14:03 87° NE 20:18:06 10° SSE
Cosmos 1633 Rocket 3.0 20:11:05 10° N 20:15:27 78° E 20:19:48 10° S
SL-8 Rocket 4.5 20:10:17 10° SSE 20:16:04 40° E 20:21:50 10° NNE
Meteor 2-15 Rocket 4.5 20:10:28 10° N 20:16:39 85° E 20:22:45 10° S
USA 186 1.7 20:16:54 10° SE 20:18:58 32° ENE 20:21:07 10° N
Meteor 1-27 4.2 20:14:03 10° S 20:19:44 72° E 20:25:22 10° NNE
Cosmos 1340 4.2 20:16:08 10° SSW 20:19:44 42° WNW 20:23:22 10° N
Meteor 2-16 Rocket 4.4 20:14:54 10° S 20:20:59 69° E 20:27:04 10° NNE
Cosmos 2278 Rocket 2.4 20:17:06 10° NNW 20:22:43 59° ENE 20:28:18 10° SE
Cosmos 1515 Rocket 3.7 20:24:07 10° S 20:28:28 56° E 20:32:50 10° NNE
Lacrosse 5 4.2 20:27:22 10° NNW 20:29:43 13° NNE 20:32:03 10° NE
ASTRO E2 4.2 20:31:44 10° SW 20:34:49 21° S 20:37:01 14° SE
Cosmos 1371 Rocket 4.2 20:30:12 10° S 20:35:20 53° ESE 20:40:33 10° NNE
Cosmos 405 Rocket 4.5 20:35:30 14° ESE 20:36:28 15° E 20:38:43 10° NE
Cosmos 1825 2.6 20:32:52 10° N 20:36:29 41° E 20:39:48 12° SSE
Envisat 3.5 20:34:31 10° S 20:39:32 61° W 20:44:35 10° NNW
Cosmos 1328 Rocket 4.0 20:39:12 10° SSW 20:43:35 66° W 20:48:01 10° N
CZ-3B R/B 3.5 20:42:51 10° NNW 20:44:04 19° NE 20:44:31 17° ENE
H-2A R/B 3.6 20:43:18 13° E 20:45:41 18° ENE 20:48:59 10° NNE
CZ-4C R/B 3.4 20:44:58 16° SE 20:46:14 17° ESE 20:49:43 10° ENE
Cosmos 2228 Rocket 3.1 20:44:41 10° S 20:49:04 85° W 20:53:29 10° N
Meteor 2-10 Rocket 4.0 20:47:48 10° SSE 20:53:18 50° E 20:58:55 10° NNE
ARGOS 4.1 20:51:35 18° ESE 20:54:35 30° ENE 20:59:10 10° N
Cosmos 2056 Rocket 3.5 20:51:04 10° S 20:56:25 65° ESE 21:01:46 10° NNE
Cosmos 1408 2.6 20:55:11 10° N 20:58:52 82° W 21:02:18 12° S
Cosmos 1470 Rocket 4.0 20:57:17 10° NNW 21:01:39 62° W 21:06:02 10° S
SL-16 R/B 2.2 20:58:29 10° S 21:04:00 58° ESE 21:09:34 10° NNE
ATLAS 2AS CENTAUR R/B 3.7 21:04:06 10° NW 21:11:27 47° WSW 21:18:13 10° S
Cosmos 1624 Rocket 4.0 21:07:36 10° SSW 21:12:48 84° WNW 21:18:01 10° NNE
Cosmos 1190 Rocket 4.0 21:09:42 10° NNW 21:14:59 71° ENE 21:17:55 26° SSE
ERS-2 4.4 21:12:37 10° SSW 21:15:37 24° W 21:18:39 10° NW
YAOGAN 6 4.3 21:12:33 10° SSW 21:15:49 31° W 21:19:07 10° NNW
Cosmos 2098 Rocket 2.8 21:11:54 10° S 21:16:28 88° WNW 21:20:05 10° N
Resurs 01 Rocket 2.5 21:13:01 10° S 21:17:19 49° W 21:21:38 10° NNW
Cosmos 405 2.8 21:15:22 10° N 21:18:51 68° E 21:19:45 45° SE
Cosmos 2344 3.7 21:11:42 10° S 21:18:58 49° ESE 21:26:37 10° NE
Cosmos 1151 Rocket 4.4 21:15:23 10° SSW 21:19:21 38° WNW 21:23:23 10° N
Spot 2 Rocket 3.8 21:17:24 13° S 21:22:00 65° WSW 21:27:04 10° NNW
Cosmos 1954 Rocket 4.4 21:21:17 10° N 21:26:17 45° ENE 21:27:53 34° ESE
Cosmos 1727 Rocket 3.9 21:23:17 10° N 21:29:29 84° E 21:33:38 22° S
Cosmos 1603 4.4 21:31:54 31° E 21:31:54 31° E 21:36:27 10° NE
MetOp-A 4.2 21:29:28 34° SE 21:31:46 64° ENE 21:37:04 10° N
Helios 1A 4.0 21:37:13 31° ENE 21:37:13 31° ENE 21:40:52 10° N
BREEZE-M DEB (TANK) 3.4 21:35:06 10° WNW 21:37:31 29° WSW 21:37:31 29° WSW
Cosmos 1441 Rocket 3.1 21:37:10 39° SSW 21:38:28 81° W 21:42:15 10° N
Cosmos 2297 3.7 21:33:07 10° NNW 21:38:49 86° WSW 21:41:21 35° SSE
Cosmos 2369 Rocket 3.7 21:34:56 10° N 21:39:15 21° NE 21:40:37 20° ENE
Terra 3.7 21:40:06 16° ENE 21:40:06 16° ENE 21:42:51 10° NNE
NOSS 3-4 (A) 3.8 21:35:18 10° NW 21:42:26 84° WSW 21:46:16 33° SSE
NOSS 3-4 (C) 3.8 21:35:24 10° NW 21:42:32 84° WSW 21:46:21 33° SSE
Cosmos 1707 Rocket 3.4 21:42:06 54° SSE 21:42:58 73° E 21:47:17 10° NNE
Cosmos 1933 3.4 21:45:41 59° ENE 21:45:41 59° ENE 21:49:30 10° NNE
Cosmos 614 Rocket 3.9 21:41:03 10° NNW 21:46:16 68° ENE 21:47:28 50° SE
ERS-1 Rocket 2.9 21:49:53 53° SE 21:50:53 66° ENE 21:55:53 10° N
Cosmos 1869 Rocket 3.7 21:48:43 10° NNW 21:53:03 68° W 21:54:05 48° SSW
SL-08 RB Rocket 3.5 21:53:52 67° SE 21:54:25 81° ENE 21:58:54 10° N
BREEZE-M DEB (TANK) 4.1 21:53:46 10° WNW 21:55:03 25° WNW 21:55:03 25° WNW
ATLAS 5 CENTAUR R/B 3.7 21:51:50 10° NNW 21:56:53 29° NE 21:58:49 24° ENE
Cosmos 1420 Rocket 3.9 21:55:12 44° S 21:56:54 74° ESE 22:02:13 10° NNE
Cosmos 1733 Rocket 4.0 21:57:16 10° N 22:00:32 35° NE 22:00:32 35° NE
Cosmos 407 Rocket 4.4 21:57:36 10° NNW 22:02:25 42° WSW 22:04:27 29° SSW
Cosmos 2278 Rocket 4.4 22:02:27 10° WNW 22:06:15 19° W 22:10:02 10° SW
GEOS 3 Rocket 4.1 22:04:06 10° NE 22:08:06 45° ENE 22:08:06 45° ENE
Cosmos 405 Rocket 4.3 22:10:36 24° WSW 22:12:09 33° WNW 22:15:45 10° N
Lacrosse 5 3.0 22:09:31 10° NNW 22:14:06 33° NE 22:14:47 32° NE
SPOT 5 2.9 22:14:46 61° NE 22:14:46 61° NE 22:18:40 10° N
SPOT 1/Viking Rocket 3.5 22:16:47 67° E 22:16:52 68° ENE 22:22:04 10° N
Cosmos 1605 Rocket 4.3 22:19:14 47° E 22:19:14 47° E 22:25:08 10° NNE
ATLAS 2A CENTAUR R/B 4.1 22:04:27 10° WSW 22:20:51 40° S 22:22:32 38° SSE
Meteor 1-26 Rocket 4.0 22:21:15 77° ESE 22:21:25 78° E 22:27:00 10° NNE
SL-19 R/B 4.2 22:21:30 64° E 22:21:45 65° ENE 22:27:18 10° N
DMSP B5D2-2 3.9 22:17:59 10° NNE 22:23:16 86° ESE 22:23:26 83° SSE
H-2A R/B 2.5 22:23:56 47° SW 22:24:42 52° W 22:29:33 10° NNW
Cosmos 1437 Rocket 3.9 22:21:25 10° N 22:24:00 40° N 22:24:00 40° N
CZ-4C R/B 2.5 22:29:40 15° SW 22:33:55 61° NW 22:39:46 10° NNE
Meteor 1-20 Rocket 4.3 22:29:12 10° N 22:34:07 61° NE 22:34:07 61° NE
ARGOS 4.4 22:33:06 29° SW 22:34:42 34° W 22:39:34 10° NNW
Cosmos 2242 Rocket 4.5 22:40:08 46° NNW 22:40:08 46° NNW 22:43:19 10° N
Cosmos 1943 Rocket 2.8 22:35:18 10° N 22:40:03 43° NE 22:40:03 43° NE
Cosmos 1934 Rocket 3.9 22:41:09 68° SW 22:41:52 77° W 22:47:57 10° N
BREEZE-M DEB (TANK) 4.2 22:14:26 10° WNW 22:42:26 83° NNE 22:44:19 56° ESE
Helios 1B rocket 3.7 22:38:39 10° N 22:41:18 37° N 22:41:18 37° N
RESURS DK-1 4.1 22:39:40 10° NNW 22:41:59 29° N 22:41:59 29° N
Cosmos 1943 3.7 23:16:42 56° NNW 23:16:42 56° NNW 23:21:31 10° NNE
Terra 3.2 23:18:59 37° NW 23:18:59 37° NW 23:22:01 10° NNW
Cosmos 2369 Rocket 3.0 23:18:07 10° NNW 23:22:25 47° WNW 23:22:25 47° WNW
CZ-2C R/B 3.8 23:21:55 10° NNE 23:25:12 38° NNE 23:25:12 38° NNE
USA 267 3.4 23:26:14 10° NE 23:32:44 69° NW 23:33:29 64° W
ATLAS 5 CENTAUR R/B 3.2 23:35:58 10° NW 23:40:22 47° WNW 23:40:22 47° WNW
